This is the latest recevied weather packets stored in our database for station/object N0QWM. If no packets are shown the sender has not sent any weather packets the latest 1 day(s).
| Time | Temp. | Humidity | Pressure | Rain* | Wind** | Luminosity | Snow |
|---|---|---|---|---|---|---|---|
| 1778095482 | 25° C | 85% | 1018.7 hPa | 0 mm | - | 65 W/m² | - |
| 1778095179 | 25° C | 84% | 1018.2 hPa | 0 mm | - | 110 W/m² | - |
| 1778094875 | 25° C | 83% | 1018.4 hPa | 0 mm | - | 77 W/m² | - |
| 1778092754 | 25° C | 83% | 1018.7 hPa | 0 mm | - | 166 W/m² | - |
| 1778089722 | 25° C | 82% | 1019 hPa | 0 mm | - | 177 W/m² | - |
| 1778088505 | 25° C | 81% | 1019.4 hPa | 0 mm | - | 174 W/m² | - |
| 1778086688 | 25° C | 81% | 1019.1 hPa | 0 mm | - | 229 W/m² | - |
| 1778086385 | 25° C | 81% | 1019.4 hPa | 0 mm | - | 213 W/m² | - |
| 1778086082 | 25° C | 80% | 1019.4 hPa | 0 mm | - | 307 W/m² | - |
| 1778081312 | 24.44° C | 81% | 1019.2 hPa | 0 mm | - | 108 W/m² | - |
| 1778080404 | 23.89° C | 81% | 1019.4 hPa | 0 mm | - | 194 W/m² | - |
| 1778079495 | 23.89° C | 81% | 1019.3 hPa | 0 mm | - | 213 W/m² | - |
| 1778078889 | 23.89° C | 81% | 1019.6 hPa | 0 mm | - | 357 W/m² | - |
| 1778076470 | 22.78° C | 85% | 1019.5 hPa | 0 mm | - | 483 W/m² | - |
| 1778074044 | 21.11° C | 90% | 1019.8 hPa | 0 mm | - | 130 W/m² | - |
| 1778073741 | 21.11° C | 91% | 1020 hPa | 0 mm | - | 107 W/m² | - |
| 1778073439 | 21.11° C | 91% | 1019.8 hPa | 0 mm | - | 125 W/m² | - |
| 1778071320 | 20° C | 92% | 1019.8 hPa | 0 mm | - | 40 W/m² | - |
| 1778071017 | 20° C | 92% | 1019.9 hPa | 0 mm | - | 25 W/m² | - |
| 1778070412 | 20° C | 92% | 1019.7 hPa | 0 mm | - | 33 W/m² | - |
| 1778070110 | 20° C | 92% | 1019.6 hPa | 0 mm | - | 21 W/m² | - |
| 1778069503 | 20° C | 92% | 1019.3 hPa | 0 mm | - | 19 W/m² | - |
| 1778068898 | 20° C | 92% | 1018.8 hPa | 0 mm | - | 21 W/m² | - |
| 1778068597 | 20° C | 92% | 1019 hPa | 0 mm | - | 12 W/m² | - |
| 1778067388 | 20° C | 91% | 1018.7 hPa | 0 mm | - | 6 W/m² | - |
* Rain latest hour (hover to see other rain measurements)
** Current wind speed in m/s (hover to see current wind gust speed)